Погода Обсерватория Федорова

Погода Обсерватория Федорова : погода сейчас, прогноз погоды и архив. Всё, что Вы хотите узнать о погоде Обсерватория Федорова!

Хотите узнать прогноз погоды Обсерватория Федорова? Тогда Вам сюда: Погода Обсерватория Федорова

Поиск расширенной информации на нашем сайте:

Другие новости

Новости СМИ2

Главная страница сайта

Новости сайта

03.07.2017

Напоминаем, что на нашем специализированном сайте Метеоцентр.Азия вы можете получить высокодетализированные автоматические прогнозы погоды по пунктам России, СНГ и мира в авиационном формате (включающие направление и скорость ветра, видимость, явления погоды, количество и форму облачности, нижнюю и верхнюю границу облачности).


Погода Обсерватория Федорова - сегодня

Время (UTC), дата Ветер
(°,м/с) 
Видим.   Явления Облачность Т
(°С)
Тd
(°С)
f(%) Тe
(°С)
Pmin
(гПа)
dP
(гПа)
Po
(мм)
O2
(г/м3)
Тmin Tmax R s Состояние
почвы
09 15.02.18 070 (В) 20000 м    9/8 420 м средняя 
[Sc|Ac trans]
-16.2 -17.5 90 -22  1018.5  0.6  763  328           
15 15.02.18 060 (СВ) 20000 м    10/10 300 м 
[Sc]
-15.8 -17 90 -22  1019.5  0.3  763  328           
18 15.02.18 060 (СВ) 20000 м    10/10 300 м 
[Sc]
-15.4 -16.6 90 -22  1019.9  0.4  764  327           
21 15.02.18 050 (СВ) 20000 м    10/0 480 м 
[Sc]
-15.4 -16.7 90 -21  1020.3  0.4  764  328           
15 16.02.18 040 (СВ) 20000 м    9/8 570 м средняя 
[Sc|Ac trans]
-17.6 -19.2 87 -25  1023.3  0.2  766  332           
18 16.02.18 050 (СВ) 20000 м    6/0 верхняя 
[Ci fib]
-22 -23.9 84 -29  1024  0.6  767  338           
21 16.02.18 090 (В) 20000 м    4/0 верхняя 
[Ci fib]
-21.7 -23.4 86 -28  1024.4  0.4  767  337           
03 17.02.18 110 (В) 20000 м    10/0 средняя, верхняя 
[Ac As|Ci]
-21.4 -23.3 85 -22  1024.8  767  337  -24.4         
06 17.02.18 360 (С) 20000 м    10/8 420 м средняя 
[Sc|Ac und]
-21.6 -23.5 85 -25  1024.9  0.1  767  337           
09 17.02.18 320 (СЗ) 20000 м    10/10 450 м 
[Sc]
-20.9 -22.8 85 -24  1025  0.1  767  337           
15 17.02.18 310 (СЗ) 20000 м    10/10 500 м 
[Sc]
-21.1 -22.9 85 -28  1023.7  -0.8  766  336           
21 17.02.18 270 (З) 20000 м  {ливн. осадки}  10/8 300 м средняя, верхняя 
[Sc|Ac trans|Ci fib]
-21.1 -22.9 85 -28  1022.3  -0.3  765  336           
06 18.02.18 190 (Ю) 20000 м  {снег}  6/3 600 м средняя, верхняя 
[Sc|Ac trans|Ci fib]
-23.5 -25.7 82 -24  1024  0.6  767  340           
09 18.02.18 220 (ЮЗ) 20000 м    8/0 средняя, верхняя 
[Ac trans|Ci fib]
-26.4 -28.8 80 -27  1025.9  1.8  768  344           
15 18.02.18 120 (ЮВ) 20000 м    4/0 средняя, верхняя 
[Ac trans|Ci fib]
-25.7 -28.2 80 -29  1028.1  0.9  770  344           
18 18.02.18 070 (В) 20000 м    4/0 средняя, верхняя 
[Ac trans|Ci fib]
-25.9 -28.3 80 -26  1028.8  0.8  770  345           
21 18.02.18 060 (СВ) 20000 м    4/0 средняя, верхняя 
[Ac trans|Ci fib]
-25.1 -27.5 80 -26  1029.5  0.6  771  344           
03 19.02.18 060 (СВ) 20000 м    8/3 300 м средняя 
[Sc|Ac As]
-27.2 -29.8 78 -28  1030.4  0.3  771  347           
06 19.02.18 100 (В) 20000 м    3/0 верхняя 
[Ci fib]
-25.6 -27.9 81 -29  1030  -0.5  771  345           
09 19.02.18 тихо ()   20000 м    4/0 верхняя 
[Ci fib]
-26.3 -28.8 79 -26  1030.3  0.3  771  346           
15 19.02.18 240 (ЮЗ) 20000 м    10/8 570 м средняя 
[Sc|Ac und]
-26.4 -28.9 79 -30  1028.8  -1.1  770  345           
18 19.02.18 230 (ЮЗ) 20000 м    3/0 средняя 
[Ac trans]
-27.2 -29.8 78 -32  1027.5  -1.3  769  346           
21 19.02.18 220 (ЮЗ) 20000 м    10/0 средняя 
[Ac und]
-25.2 -27.5 81 -30  1026.8  -0.7  769  343           
06 20.02.18 300 (СЗ) 20000 м  {снег}  10/5 300 м средняя, верхняя 
[Sc|Ac trans|Ci fib]
-21.3 -23.2 85 -26  1025.8  -0.2  768  337           
00 23.02.18 050 (СВ) 9-13{13}  4000 м  слаб. ливневой снег  10/10 270 м кучево-дожд. 
[Cb cap]
-17 -18.6 87 -25  1036.6  1.3  776  335  -17.4    17  неравномерный
сухой снег
100% 
Время (UTC), дата Ветер
(°,м/с) 
Видим.   Явления Облачность Т
(°С)
Тd
(°С)
f(%) Тe
(°С)
Pmin
(гПа)
dP
(гПа)
Po
(мм)
O2
(г/м3)
Тmin Tmax R s Состояние
почвы

Для получения пояснительной информации подведите курсор к названию столбца.

ПОГОДА Обсерватория Федорова - архив

Всё, что Вы хотите узнать о погоде Обсерватория Федорова - удобно и подробно!

Выберите нужную дату (начиная с 1 января 2015* года) и нажмите кнопку "Найти".
Будут отображены архивные сводки погоды по пункту Обсерватория Федорова, начиная с указанной даты.


Отображать данные в формате CSV (для использования в таблицах Excel)


Внимание! Наш архив погоды предназначен исключительно для личного некоммерческого использования в познавательных целях. Если Вам необходимы официальные справки о состоянии погоды (для производственных, юридических, коммерческих и т.п. целей), обращайтесь в органы Росгидромета.

*Примечание: данная дата относится к архиву по метеостанциям СССР (Россия, СНГ, Балтия).
Архив по метеостанциям Зарубежной Европы и Азии (кроме Китая) хранится 10 дней, по другим регионам земного шара (Китай, Африка, Америка, Австралия, Океания) - 1 день.

Обсерватория Федорова - район местоположения метеостанции


Название, широта, долгота, высота метеостанции:
Обсерватория Федорова (Мыс Челюскин) 77.7°ш. 104.3°д. 15 м над ур. моря [Российская Федерация]

Дополнительная информация

В oтличие oт бoльшинства пoгoдных сайтoв мы публикуем пoдрoбную метеoинфoрмацию в детальнoм прoфессиoнальнoм фoрмате.

Характеристики температуры и влажнoсти вoздуха измеряются на высoте 2 м в тени вдали oт зданий и деревьев.
Скoрoсть ветра измеряется на высoте 10 м (на урoвне рoста челoвека скoрoсть ветра ниже в 1.5-2 раза). Если метеoстанция нахoдится в гoрoде или в лесу, тo скoрoсть ветра занижена на 2-4 м/с пo сравнению с oткрытым местoм. Скoрoсть ветра над акватoриями крупных рек и oзёр, а также на вершинах хoлмoв на 2-5 м/с выше, чем в oбычных услoвиях.
Атмoсфернoе давление в разных тoчках местнoсти мoжет значительнo oтличаться oт давления на метеoстанции, в зависимoсти oт услoвий рельефа (при пoдъёме на 10 м давление пoнижается примернo на 1 мм рт.ст.).